nws-alerts: Checking more than four warning/county codes can delay the loading of your pages. You should use a cron job to get the data.
EllijayWeather Station Historical Data
Daily Summary for March 15, 2019 Units:  English    Metric   Both
Daily Weekly Monthly Yearly Custom
  High: Low: Average:
Temperature: 64.6 °F 45.0 °F 58.6 °F
Dew Point: 62.8 °F 32.7 °F 51.1 °F
Humidity: 98% 44% 78%
Wind Speed: 0.0mph 0.0mph 0mph
Wind Gust: 0.0mph - -
Wind- - North
Pressure: 30.22 in 29.97 in -
Precipitation: 0.23 in    
Historical Graphs
 
 
Tabular Data for March 15, 2019
Time Temperature Dew Point Pressure Wind Wind Speed Wind Gust Humidity Rainfall Rate (Hourly) solar
00:04 63.1 °F 61.7 °F 29.99 in Calm     95% 0.01 in meteobridge W/m2
00:09 63.3 °F 61.9 °F 29.99 in Calm     95% 0.01 in meteobridge W/m2
00:14 63.7 °F 61.7 °F 30.00 in Calm     93% 0.01 in meteobridge W/m2
00:19 63.9 °F 62.1 °F 30.00 in Calm     94% 0.01 in meteobridge W/m2
00:24 64.0 °F 62.1 °F 29.99 in Calm     93% 0.01 in meteobridge W/m2
00:29 64.2 °F 62.2 °F 29.98 in Calm     93% 0.01 in meteobridge W/m2
00:34 64.2 °F 62.2 °F 29.98 in Calm     93% 0.01 in meteobridge W/m2
00:39 64.2 °F 62.2 °F 29.98 in Calm     93% 0.01 in meteobridge W/m2
00:44 64.2 °F 61.9 °F 29.99 in Calm     92% 0.01 in meteobridge W/m2
00:49 64.6 °F 62.2 °F 29.97 in Calm     92% 0.01 in meteobridge W/m2
00:54 64.6 °F 62.4 °F 29.98 in Calm     93% 0.01 in meteobridge W/m2
00:59 64.6 °F 62.2 °F 29.99 in Calm     92% 0.01 in meteobridge W/m2
01:04 64.4 °F 62.1 °F 29.99 in Calm     92% 0.01 in meteobridge W/m2
01:09 64.2 °F 62.2 °F 29.99 in Calm     93% 0.02 in meteobridge W/m2
01:14 64.0 °F 62.1 °F 30.00 in Calm     93% 0.02 in meteobridge W/m2
01:19 64.2 °F 62.2 °F 29.99 in Calm     93% 0.02 in meteobridge W/m2
01:24 64.2 °F 62.2 °F 29.99 in Calm     93% 0.03 in meteobridge W/m2
01:29 64.0 °F 62.2 °F 29.98 in Calm     94% 0.03 in meteobridge W/m2
01:34 64.0 °F 62.2 °F 29.99 in Calm     94% 0.03 in meteobridge W/m2
01:39 63.9 °F 62.4 °F 29.99 in Calm     95% 0.04 in meteobridge W/m2
01:44 63.9 °F 62.1 °F 29.99 in Calm     94% 0.04 in meteobridge W/m2
01:49 63.9 °F 62.4 °F 29.99 in Calm     95% 0.04 in meteobridge W/m2
01:54 63.7 °F 62.2 °F 29.99 in Calm     95% 0.03 in meteobridge W/m2
01:59 63.7 °F 62.2 °F 29.98 in Calm     95% 0.03 in meteobridge W/m2
02:04 63.7 °F 62.2 °F 29.99 in Calm     95% 0.04 in meteobridge W/m2
02:09 63.7 °F 62.6 °F 29.98 in Calm     96% 0.03 in meteobridge W/m2
02:14 63.5 °F 62.4 °F 29.98 in Calm     96% 0.03 in meteobridge W/m2
02:19 63.5 °F 62.4 °F 29.98 in Calm     96% 0.04 in meteobridge W/m2
02:24 63.5 °F 62.4 °F 29.98 in Calm     96% 0.03 in meteobridge W/m2
02:29 63.5 °F 62.4 °F 29.98 in Calm     96% 0.03 in meteobridge W/m2
02:34 63.5 °F 62.4 °F 29.98 in Calm     96% 0.03 in meteobridge W/m2
02:39 63.5 °F 62.4 °F 29.98 in Calm     96% 0.02 in meteobridge W/m2
02:44 63.5 °F 62.4 °F 29.99 in Calm     96% 0.02 in meteobridge W/m2
02:49 63.7 °F 62.6 °F 29.99 in Calm     96% 0.02 in meteobridge W/m2
02:54 63.5 °F 62.4 °F 29.99 in Calm     96% 0.02 in meteobridge W/m2
02:59 63.5 °F 62.4 °F 29.99 in Calm     96% 0.02 in meteobridge W/m2
03:04 63.5 °F 62.4 °F 30.00 in Calm     96% 0.01 in meteobridge W/m2
03:09 63.5 °F 62.4 °F 29.99 in Calm     96% 0.02 in meteobridge W/m2
03:14 63.5 °F 62.6 °F 29.99 in Calm     97% 0.02 in meteobridge W/m2
03:19 63.5 °F 62.6 °F 29.98 in Calm     97% 0.09 in meteobridge W/m2
03:24 63.3 °F 62.4 °F 29.98 in Calm     97% 0.10 in meteobridge W/m2
03:29 63.3 °F 62.4 °F 29.98 in Calm     97% 0.11 in meteobridge W/m2
03:34 63.3 °F 62.4 °F 29.98 in Calm     97% 0.11 in meteobridge W/m2
03:39 63.3 °F 62.4 °F 29.98 in Calm     97% 0.11 in meteobridge W/m2
03:44 63.3 °F 62.4 °F 29.98 in Calm     97% 0.11 in meteobridge W/m2
03:49 63.3 °F 62.4 °F 29.98 in Calm     97% 0.11 in meteobridge W/m2
03:54 63.1 °F 62.2 °F 29.98 in Calm     97% 0.11 in meteobridge W/m2
03:59 63.1 °F 62.6 °F 29.98 in Calm     98% 0.11 in meteobridge W/m2
04:04 63.1 °F 62.6 °F 29.98 in Calm     98% 0.10 in meteobridge W/m2
04:09 63.3 °F 62.8 °F 29.98 in Calm     98% 0.10 in meteobridge W/m2
04:14 63.3 °F 62.8 °F 29.98 in Calm     98% 0.10 in meteobridge W/m2
04:19 63.3 °F 62.8 °F 29.97 in Calm     98% 0.02 in meteobridge W/m2
04:24 63.3 °F 62.8 °F 29.97 in Calm     98% 0.01 in meteobridge W/m2
04:29 63.3 °F 62.8 °F 29.98 in Calm     98% 0.00 in meteobridge W/m2
04:34 63.1 °F 62.6 °F 29.98 in Calm     98% 0.00 in meteobridge W/m2
04:39 63.1 °F 62.6 °F 29.98 in Calm     98% 0.00 in meteobridge W/m2
04:44 63.1 °F 62.6 °F 29.98 in Calm     98% 0.00 in meteobridge W/m2
04:49 63.1 °F 62.6 °F 29.98 in Calm     98% 0.00 in meteobridge W/m2
04:54 63.1 °F 62.6 °F 29.98 in Calm     98% 0.00 in meteobridge W/m2
04:59 63.1 °F 62.6 °F 29.98 in Calm     98% 0.00 in meteobridge W/m2
05:04 63.1 °F 62.6 °F 29.98 in Calm     98% 0.00 in meteobridge W/m2
05:09 63.1 °F 62.6 °F 29.98 in Calm     98% 0.00 in meteobridge W/m2
05:14 63.1 °F 62.6 °F 29.98 in Calm     98% 0.00 in meteobridge W/m2
05:19 63.1 °F 62.6 °F 29.98 in Calm     98% 0.00 in meteobridge W/m2
05:24 63.1 °F 62.6 °F 29.97 in Calm     98% 0.00 in meteobridge W/m2
05:29 63.0 °F 62.4 °F 29.98 in Calm     98% 0.00 in meteobridge W/m2
05:34 63.0 °F 62.4 °F 29.98 in Calm     98% 0.00 in meteobridge W/m2
05:39 63.0 °F 62.4 °F 29.98 in Calm     98% 0.00 in meteobridge W/m2
05:44 63.0 °F 62.4 °F 29.98 in Calm     98% 0.02 in meteobridge W/m2
05:49 63.0 °F 62.4 °F 29.98 in Calm     98% 0.02 in meteobridge W/m2
05:54 62.8 °F 62.2 °F 29.98 in Calm     98% 0.02 in meteobridge W/m2
05:59 62.6 °F 62.1 °F 29.99 in Calm     98% 0.02 in meteobridge W/m2
06:04 62.4 °F 61.9 °F 29.99 in Calm     98% 0.02 in meteobridge W/m2
06:09 62.2 °F 61.7 °F 29.99 in Calm     98% 0.02 in meteobridge W/m2
06:14 62.2 °F 61.3 °F 29.99 in Calm     97% 0.02 in meteobridge W/m2
06:19 62.1 °F 61.2 °F 29.99 in Calm     97% 0.02 in meteobridge W/m2
06:24 62.1 °F 61.5 °F 29.99 in Calm     98% 0.02 in meteobridge W/m2
06:29 62.1 °F 61.5 °F 29.99 in Calm     98% 0.02 in meteobridge W/m2
06:34 61.9 °F 61.3 °F 29.99 in Calm     98% 0.02 in meteobridge W/m2
06:39 61.9 °F 61.3 °F 29.99 in Calm     98% 0.01 in meteobridge W/m2
06:44 61.9 °F 61.3 °F 29.99 in Calm     98% 0.00 in meteobridge W/m2
06:49 61.7 °F 61.2 °F 29.99 in Calm     98% 0.00 in meteobridge W/m2
06:54 61.5 °F 61.0 °F 29.99 in Calm     98% 0.00 in meteobridge W/m2
06:59 61.5 °F 61.0 °F 29.99 in Calm     98% 0.00 in meteobridge W/m2
07:04 61.5 °F 61.0 °F 30.00 in Calm     98% 0.00 in meteobridge W/m2
07:09 61.3 °F 60.8 °F 30.01 in Calm     98% 0.00 in meteobridge W/m2
07:14 61.3 °F 60.8 °F 30.01 in Calm     98% 0.00 in meteobridge W/m2
07:19 61.3 °F 60.8 °F 30.01 in Calm     98% 0.00 in meteobridge W/m2
07:24 61.3 °F 60.8 °F 30.00 in Calm     98% 0.00 in meteobridge W/m2
07:29 61.5 °F 61.0 °F 30.00 in Calm     98% 0.00 in meteobridge W/m2
07:34 61.5 °F 61.0 °F 30.01 in Calm     98% 0.00 in meteobridge W/m2
07:39 61.5 °F 61.0 °F 30.00 in Calm     98% 0.00 in meteobridge W/m2
07:44 61.5 °F 61.0 °F 30.00 in Calm     98% 0.00 in meteobridge W/m2
07:49 61.3 °F 60.8 °F 29.99 in Calm     98% 0.00 in meteobridge W/m2
07:54 61.3 °F 60.8 °F 30.00 in Calm     98% 0.00 in meteobridge W/m2
07:59 61.3 °F 60.8 °F 30.00 in Calm     98% 0.00 in meteobridge W/m2
08:04 61.2 °F 60.6 °F 30.00 in Calm     98% 0.00 in meteobridge W/m2
08:09 61.2 °F 60.6 °F 30.01 in Calm     98% 0.00 in meteobridge W/m2
08:14 61.2 °F 60.6 °F 30.01 in Calm     98% 0.00 in meteobridge W/m2
08:19 61.2 °F 60.6 °F 30.01 in Calm     98% 0.00 in meteobridge W/m2
08:24 61.0 °F 60.4 °F 30.01 in Calm     98% 0.00 in meteobridge W/m2
08:29 60.6 °F 59.5 °F 30.01 in Calm     96% 0.00 in meteobridge W/m2
08:34 60.3 °F 59.2 °F 30.01 in Calm     96% 0.00 in meteobridge W/m2
08:39 59.7 °F 58.6 °F 30.02 in Calm     96% 0.00 in meteobridge W/m2
08:44 59.4 °F 58.3 °F 30.01 in Calm     96% 0.01 in meteobridge W/m2
08:49 58.8 °F 57.7 °F 30.02 in Calm     96% 0.01 in meteobridge W/m2
08:54 58.6 °F 57.6 °F 30.02 in Calm     96% 0.01 in meteobridge W/m2
08:59 58.3 °F 57.2 °F 30.03 in Calm     96% 0.01 in meteobridge W/m2
09:04 57.7 °F 54.5 °F 30.03 in Calm     89% 0.01 in meteobridge W/m2
09:09 56.8 °F 54.5 °F 30.03 in Calm     92% 0.01 in meteobridge W/m2
09:14 56.3 °F 54.0 °F 30.05 in Calm     92% 0.01 in meteobridge W/m2
09:19 55.8 °F 53.4 °F 30.04 in Calm     92% 0.02 in meteobridge W/m2
09:24 55.4 °F 53.4 °F 30.04 in Calm     93% 0.02 in meteobridge W/m2
09:29 54.9 °F 53.4 °F 30.04 in Calm     95% 0.02 in meteobridge W/m2
09:34 54.7 °F 53.2 °F 30.05 in Calm     95% 0.03 in meteobridge W/m2
09:39 54.3 °F 52.9 °F 30.04 in Calm     95% 0.04 in meteobridge W/m2
09:44 54.1 °F 52.7 °F 30.05 in Calm     95% 0.03 in meteobridge W/m2
09:49 54.0 °F 52.9 °F 30.06 in Calm     96% 0.03 in meteobridge W/m2
09:54 54.0 °F 53.1 °F 30.05 in Calm     97% 0.03 in meteobridge W/m2
09:59 53.8 °F 52.3 °F 30.06 in Calm     95% 0.03 in meteobridge W/m2
10:04 53.8 °F 52.7 °F 30.06 in Calm     96% 0.03 in meteobridge W/m2
10:09 53.8 °F 52.9 °F 30.06 in Calm     97% 0.03 in meteobridge W/m2
10:14 54.0 °F 53.1 °F 30.06 in Calm     97% 0.03 in meteobridge W/m2
10:19 54.0 °F 52.9 °F 30.06 in Calm     96% 0.02 in meteobridge W/m2
10:24 54.0 °F 53.1 °F 30.06 in Calm     97% 0.02 in meteobridge W/m2
10:29 54.1 °F 53.2 °F 30.06 in Calm     97% 0.02 in meteobridge W/m2
10:34 54.1 °F 53.2 °F 30.06 in Calm     97% 0.01 in meteobridge W/m2
10:39 54.3 °F 53.4 °F 30.07 in Calm     97% 0.00 in meteobridge W/m2
10:44 54.7 °F 53.8 °F 30.06 in Calm     97% 0.00 in meteobridge W/m2
10:49 54.9 °F 53.8 °F 30.06 in Calm     96% 0.00 in meteobridge W/m2
10:54 55.0 °F 54.1 °F 30.06 in Calm     97% 0.00 in meteobridge W/m2
10:59 55.6 °F 54.1 °F 30.07 in Calm     95% 0.00 in meteobridge W/m2
11:04 55.8 °F 53.8 °F 30.06 in Calm     93% 0.00 in meteobridge W/m2
11:09 55.6 °F 52.3 °F 30.07 in Calm     89% 0.00 in meteobridge W/m2
11:14 55.6 °F 54.0 °F 30.08 in Calm     94% 0.00 in meteobridge W/m2
11:19 55.6 °F 53.6 °F 30.08 in Calm     93% 0.00 in meteobridge W/m2
11:24 55.4 °F 53.4 °F 30.08 in Calm     93% 0.00 in meteobridge W/m2
11:29 55.4 °F 53.4 °F 30.09 in Calm     93% 0.00 in meteobridge W/m2
11:34 55.8 °F 54.1 °F 30.08 in Calm     94% 0.00 in meteobridge W/m2
11:39 55.9 °F 53.4 °F 30.08 in Calm     91% 0.00 in meteobridge W/m2
11:44 56.1 °F 52.3 °F 30.09 in Calm     87% 0.00 in meteobridge W/m2
11:49 56.1 °F 51.6 °F 30.09 in Calm     85% 0.00 in meteobridge W/m2
11:54 56.5 °F 52.9 °F 30.08 in Calm     88% 0.00 in meteobridge W/m2
11:59 57.0 °F 52.0 °F 30.09 in Calm     83% 0.00 in meteobridge W/m2
12:04 57.6 °F 52.7 °F 30.09 in Calm     84% 0.00 in meteobridge W/m2
12:09 57.6 °F 52.5 °F 30.09 in Calm     83% 0.00 in meteobridge W/m2
12:14 57.6 °F 52.7 °F 30.09 in Calm     84% 0.00 in meteobridge W/m2
12:19 57.6 °F 52.5 °F 30.08 in Calm     83% 0.00 in meteobridge W/m2
12:24 57.6 °F 52.2 °F 30.09 in Calm     82% 0.00 in meteobridge W/m2
12:29 57.7 °F 51.3 °F 30.09 in Calm     79% 0.00 in meteobridge W/m2
12:34 58.1 °F 52.7 °F 30.09 in Calm     82% 0.00 in meteobridge W/m2
12:39 57.9 °F 51.1 °F 30.10 in Calm     78% 0.00 in meteobridge W/m2
12:44 57.7 °F 50.5 °F 30.09 in Calm     77% 0.00 in meteobridge W/m2
12:49 57.7 °F 50.9 °F 30.09 in Calm     78% 0.00 in meteobridge W/m2
12:54 57.9 °F 50.4 °F 30.09 in Calm     76% 0.00 in meteobridge W/m2
12:59 58.3 °F 48.9 °F 30.09 in Calm     71% 0.00 in meteobridge W/m2
13:04 58.5 °F 50.2 °F 30.09 in Calm     74% 0.00 in meteobridge W/m2
13:09 58.6 °F 48.6 °F 30.09 in Calm     69% 0.00 in meteobridge W/m2
13:14 58.6 °F 49.6 °F 30.08 in Calm     72% 0.00 in meteobridge W/m2
13:19 58.5 °F 48.0 °F 30.08 in Calm     68% 0.00 in meteobridge W/m2
13:24 58.3 °F 48.2 °F 30.08 in Calm     69% 0.00 in meteobridge W/m2
13:29 58.3 °F 48.9 °F 30.08 in Calm     71% 0.00 in meteobridge W/m2
13:34 58.1 °F 50.5 °F 30.09 in Calm     76% 0.00 in meteobridge W/m2
13:39 57.9 °F 50.4 °F 30.08 in Calm     76% 0.00 in meteobridge W/m2
13:44 57.9 °F 48.9 °F 30.08 in Calm     72% 0.00 in meteobridge W/m2
13:49 58.5 °F 48.7 °F 30.08 in Calm     70% 0.00 in meteobridge W/m2
13:54 58.8 °F 49.1 °F 30.08 in Calm     70% 0.00 in meteobridge W/m2
13:59 59.2 °F 50.2 °F 30.08 in Calm     72% 0.00 in meteobridge W/m2
14:04 59.4 °F 49.1 °F 30.08 in Calm     69% 0.00 in meteobridge W/m2
14:09 59.5 °F 50.2 °F 30.07 in Calm     71% 0.00 in meteobridge W/m2
14:14 59.7 °F 49.1 °F 30.06 in Calm     68% 0.00 in meteobridge W/m2
14:19 59.9 °F 48.6 °F 30.07 in Calm     66% 0.00 in meteobridge W/m2
14:24 60.3 °F 49.6 °F 30.07 in Calm     68% 0.00 in meteobridge W/m2
14:29 60.4 °F 49.8 °F 30.06 in Calm     68% 0.00 in meteobridge W/m2
14:34 61.0 °F 50.0 °F 30.06 in Calm     67% 0.00 in meteobridge W/m2
14:39 61.2 °F 49.6 °F 30.06 in Calm     66% 0.00 in meteobridge W/m2
14:44 61.0 °F 49.1 °F 30.06 in Calm     65% 0.00 in meteobridge W/m2
14:49 60.6 °F 48.0 °F 30.07 in Calm     63% 0.00 in meteobridge W/m2
14:54 60.4 °F 46.0 °F 30.06 in Calm     59% 0.00 in meteobridge W/m2
14:59 60.3 °F 45.9 °F 30.06 in Calm     59% 0.00 in meteobridge W/m2
15:04 60.4 °F 47.3 °F 30.06 in Calm     62% 0.00 in meteobridge W/m2
15:09 60.6 °F 46.6 °F 30.06 in Calm     60% 0.00 in meteobridge W/m2
15:14 60.6 °F 44.8 °F 30.06 in Calm     56% 0.00 in meteobridge W/m2
15:19 60.4 °F 43.7 °F 30.06 in Calm     54% 0.00 in meteobridge W/m2
15:24 60.4 °F 43.2 °F 30.06 in Calm     53% 0.00 in meteobridge W/m2
15:29 60.4 °F 46.4 °F 30.06 in Calm     60% 0.00 in meteobridge W/m2
15:34 60.4 °F 44.6 °F 30.06 in Calm     56% 0.00 in meteobridge W/m2
15:39 60.6 °F 45.3 °F 30.06 in Calm     57% 0.00 in meteobridge W/m2
15:44 61.0 °F 43.7 °F 30.06 in Calm     53% 0.00 in meteobridge W/m2
15:49 61.0 °F 44.2 °F 30.06 in Calm     54% 0.00 in meteobridge W/m2
15:54 60.8 °F 45.0 °F 30.06 in Calm     56% 0.00 in meteobridge W/m2
15:59 61.0 °F 45.7 °F 30.06 in Calm     57% 0.00 in meteobridge W/m2
16:04 61.2 °F 43.3 °F 30.06 in Calm     52% 0.00 in meteobridge W/m2
16:09 61.2 °F 43.3 °F 30.06 in Calm     52% 0.00 in meteobridge W/m2
16:14 61.3 °F 45.0 °F 30.06 in Calm     55% 0.00 in meteobridge W/m2
16:19 61.5 °F 43.7 °F 30.06 in Calm     52% 0.00 in meteobridge W/m2
16:24 61.5 °F 46.6 °F 30.06 in Calm     58% 0.00 in meteobridge W/m2
16:29 61.7 °F 43.9 °F 30.06 in Calm     52% 0.00 in meteobridge W/m2
16:34 61.7 °F 45.0 °F 30.06 in Calm     54% 0.00 in meteobridge W/m2
16:39 61.5 °F 43.7 °F 30.06 in Calm     52% 0.00 in meteobridge W/m2
16:44 61.3 °F 43.5 °F 30.06 in Calm     52% 0.00 in meteobridge W/m2
16:49 61.3 °F 43.0 °F 30.06 in Calm     51% 0.00 in meteobridge W/m2
16:54 61.2 °F 43.3 °F 30.06 in Calm     52% 0.00 in meteobridge W/m2
16:59 61.0 °F 43.7 °F 30.06 in Calm     53% 0.00 in meteobridge W/m2
17:04 61.0 °F 42.3 °F 30.06 in Calm     50% 0.00 in meteobridge W/m2
17:09 61.0 °F 42.8 °F 30.06 in Calm     51% 0.00 in meteobridge W/m2
17:14 61.0 °F 45.1 °F 30.06 in Calm     56% 0.00 in meteobridge W/m2
17:19 61.2 °F 44.4 °F 30.06 in Calm     54% 0.00 in meteobridge W/m2
17:24 61.2 °F 45.9 °F 30.06 in Calm     57% 0.00 in meteobridge W/m2
17:29 61.0 °F 44.8 °F 30.06 in Calm     55% 0.00 in meteobridge W/m2
17:34 61.0 °F 44.8 °F 30.06 in Calm     55% 0.00 in meteobridge W/m2
17:39 61.0 °F 44.2 °F 30.06 in Calm     54% 0.00 in meteobridge W/m2
17:44 61.0 °F 43.2 °F 30.07 in Calm     52% 0.00 in meteobridge W/m2
17:49 61.0 °F 41.7 °F 30.07 in Calm     49% 0.00 in meteobridge W/m2
17:54 61.0 °F 39.6 °F 30.07 in Calm     45% 0.00 in meteobridge W/m2
17:59 60.6 °F 41.4 °F 30.07 in Calm     49% 0.00 in meteobridge W/m2
18:04 60.4 °F 39.6 °F 30.07 in Calm     46% 0.00 in meteobridge W/m2
18:09 60.3 °F 40.5 °F 30.06 in Calm     48% 0.00 in meteobridge W/m2
18:14 60.3 °F 38.3 °F 30.07 in Calm     44% 0.00 in meteobridge W/m2
18:19 60.3 °F 40.5 °F 30.07 in Calm     48% 0.00 in meteobridge W/m2
18:24 60.1 °F 41.4 °F 30.07 in Calm     50% 0.00 in meteobridge W/m2
18:29 59.7 °F 39.9 °F 30.07 in Calm     48% 0.00 in meteobridge W/m2
18:34 59.4 °F 39.7 °F 30.07 in Calm     48% 0.00 in meteobridge W/m2
18:39 59.0 °F 37.8 °F 30.07 in Calm     45% 0.00 in meteobridge W/m2
18:44 58.6 °F 40.6 °F 30.07 in Calm     51% 0.00 in meteobridge W/m2
18:49 58.5 °F 40.8 °F 30.08 in Calm     52% 0.00 in meteobridge W/m2
18:54 58.3 °F 41.7 °F 30.08 in Calm     54% 0.00 in meteobridge W/m2
18:59 57.9 °F 39.4 °F 30.08 in Calm     50% 0.00 in meteobridge W/m2
19:04 57.7 °F 41.2 °F 30.09 in Calm     54% 0.00 in meteobridge W/m2
19:09 57.6 °F 41.5 °F 30.09 in Calm     55% 0.00 in meteobridge W/m2
19:14 57.4 °F 41.9 °F 30.09 in Calm     56% 0.00 in meteobridge W/m2
19:19 57.0 °F 39.6 °F 30.09 in Calm     52% 0.00 in meteobridge W/m2
19:24 56.8 °F 39.9 °F 30.09 in Calm     53% 0.00 in meteobridge W/m2
19:29 56.7 °F 40.6 °F 30.10 in Calm     55% 0.00 in meteobridge W/m2
19:34 56.7 °F 39.7 °F 30.10 in Calm     53% 0.00 in meteobridge W/m2
19:39 56.5 °F 40.5 °F 30.11 in Calm     55% 0.00 in meteobridge W/m2
19:44 56.3 °F 38.8 °F 30.11 in Calm     52% 0.00 in meteobridge W/m2
19:49 56.1 °F 40.1 °F 30.11 in Calm     55% 0.00 in meteobridge W/m2
19:54 55.9 °F 39.0 °F 30.11 in Calm     53% 0.00 in meteobridge W/m2
19:59 55.6 °F 39.2 °F 30.11 in Calm     54% 0.00 in meteobridge W/m2
20:04 55.0 °F 39.6 °F 30.11 in Calm     56% 0.00 in meteobridge W/m2
20:09 54.9 °F 38.1 °F 30.12 in Calm     53% 0.00 in meteobridge W/m2
20:14 54.7 °F 40.3 °F 30.12 in Calm     58% 0.00 in meteobridge W/m2
20:19 54.3 °F 39.4 °F 30.12 in Calm     57% 0.00 in meteobridge W/m2
20:24 54.1 °F 39.2 °F 30.12 in Calm     57% 0.00 in meteobridge W/m2
20:29 53.8 °F 37.9 °F 30.12 in Calm     55% 0.00 in meteobridge W/m2
20:34 53.4 °F 38.5 °F 30.13 in Calm     57% 0.00 in meteobridge W/m2
20:39 53.4 °F 38.5 °F 30.13 in Calm     57% 0.00 in meteobridge W/m2
20:44 53.1 °F 37.8 °F 30.13 in Calm     56% 0.00 in meteobridge W/m2
20:49 52.9 °F 39.7 °F 30.14 in Calm     61% 0.00 in meteobridge W/m2
20:54 52.5 °F 39.9 °F 30.14 in Calm     62% 0.00 in meteobridge W/m2
20:59 52.2 °F 39.2 °F 30.14 in Calm     61% 0.00 in meteobridge W/m2
21:04 52.0 °F 40.6 °F 30.15 in Calm     65% 0.00 in meteobridge W/m2
21:09 51.6 °F 38.7 °F 30.15 in Calm     61% 0.00 in meteobridge W/m2
21:14 51.4 °F 39.2 °F 30.15 in Calm     63% 0.00 in meteobridge W/m2
21:19 51.3 °F 39.6 °F 30.15 in Calm     64% 0.00 in meteobridge W/m2
21:24 51.1 °F 39.4 °F 30.15 in Calm     64% 0.00 in meteobridge W/m2
21:29 50.7 °F 39.4 °F 30.16 in Calm     65% 0.00 in meteobridge W/m2
21:34 50.7 °F 39.0 °F 30.16 in Calm     64% 0.00 in meteobridge W/m2
21:39 50.7 °F 39.0 °F 30.16 in Calm     64% 0.00 in meteobridge W/m2
21:44 50.5 °F 37.9 °F 30.16 in Calm     62% 0.00 in meteobridge W/m2
21:49 50.5 °F 37.6 °F 30.16 in Calm     61% 0.00 in meteobridge W/m2
21:54 50.7 °F 37.4 °F 30.16 in Calm     60% 0.00 in meteobridge W/m2
21:59 50.9 °F 37.9 °F 30.16 in Calm     61% 0.00 in meteobridge W/m2
22:04 50.7 °F 38.7 °F 30.16 in Calm     63% 0.00 in meteobridge W/m2
22:09 50.5 °F 38.5 °F 30.17 in Calm     63% 0.00 in meteobridge W/m2
22:14 50.4 °F 37.8 °F 30.17 in Calm     62% 0.00 in meteobridge W/m2
22:19 50.2 °F 37.6 °F 30.17 in Calm     62% 0.00 in meteobridge W/m2
22:24 50.0 °F 37.9 °F 30.18 in Calm     63% 0.00 in meteobridge W/m2
22:29 49.8 °F 38.5 °F 30.18 in Calm     65% 0.00 in meteobridge W/m2
22:34 49.5 °F 37.4 °F 30.18 in Calm     63% 0.00 in meteobridge W/m2
22:39 49.3 °F 37.2 °F 30.18 in Calm     63% 0.00 in meteobridge W/m2
22:44 48.7 °F 37.0 °F 30.19 in Calm     64% 0.00 in meteobridge W/m2
22:49 48.4 °F 36.7 °F 30.19 in Calm     64% 0.00 in meteobridge W/m2
22:54 48.0 °F 36.5 °F 30.19 in Calm     64% 0.00 in meteobridge W/m2
22:59 47.7 °F 36.5 °F 30.19 in Calm     65% 0.00 in meteobridge W/m2
23:04 47.5 °F 36.3 °F 30.19 in Calm     65% 0.00 in meteobridge W/m2
23:09 46.9 °F 36.1 °F 30.20 in Calm     66% 0.00 in meteobridge W/m2
23:14 46.8 °F 36.0 °F 30.20 in Calm     66% 0.00 in meteobridge W/m2
23:19 46.6 °F 35.8 °F 30.20 in Calm     66% 0.00 in meteobridge W/m2
23:24 46.2 °F 35.1 °F 30.20 in Calm     65% 0.00 in meteobridge W/m2
23:29 46.2 °F 34.7 °F 30.21 in Calm     64% 0.00 in meteobridge W/m2
23:34 46.0 °F 34.2 °F 30.21 in Calm     63% 0.00 in meteobridge W/m2
23:39 45.9 °F 34.0 °F 30.22 in Calm     63% 0.00 in meteobridge W/m2
23:44 45.7 °F 33.8 °F 30.22 in Calm     63% 0.00 in meteobridge W/m2
23:49 45.3 °F 33.4 °F 30.22 in Calm     63% 0.00 in meteobridge W/m2
23:54 45.1 °F 32.9 °F 30.22 in Calm     62% 0.00 in meteobridge W/m2
23:59 45.0 °F 32.7 °F 30.22 in Calm     62% 0.00 in meteobridge W/m2
EllijayWeather
Compliments of Weather Underground - 2.5 mb